SCP
-0 0 0 0 0 0 0 0 0 -0 0 -0 0 0 0 0 0 -0 0 0 -1 -0 -1 -1 -2 -2 -2 -2 -1 -2 -1 -1
0 0 0 0 0 0 0 0 0 0 0 0 0 0 0 0 -0 0 0 0 -1 -1 -1 -1 -3 -2 -2 -3 -2 -2 -1 -1
0 0 0 0 0 0 0 0 0 0 -0 -0 -0 0 0 -0 0 0 -0 -1 -1 -0 -1 -1 -2 -3 -3 -3 -2 -2 -1 -1
0 0 0 0 0 0 0 0 0 0 0 0 0 -0 -0 -0 -0 -0 -0 -0 -0 -0 -0 -1 -1 -3 -4 -3 -3 -2 -1 -1
0 0 0 0 0 0 0 0 0 0 0 -0 0 -0 -0 0 -0 0 0 0 0 0 1 -0 -0 -2 -4 -4 -3 -1 -1 -0
0 0 0 0 0 0 0 0 0 0 0 0 0 -0 0 0 0 0 0 1 0 0 1 1 0 -1 -2 -3 -3 -2 -0 0
0 0 0 0 0 0 0 0 0 0 0 0 -0 -0 0 0 1 1 1 1 1 1 0 2 1 1 0 -1 -2 -2 -1 -1
0 0 0 0 0 0 0 0 0 0 0 -0 -0 0 -0 -0 1 1 2 2 1 1 1 1 3 2 2 1 0 0 0 -0
-0 0 0 -0 0 0 0 0 -0 0 0 0 0 1 0 1 1 0 2 5 3 3 1 2 4 4 3 3 3 2 2 1
0 0 0 -0 0 -0 0 0 0 -0 0 0 0 0 0 0 0 0 0 0 3 4 5 2 2 5 5 4 2 3 3 3
0 0 0 0 0 0 0 0 -0 -0 -0 -0 -0 0 0 0 0 0 0 0 -0 -0 2 3 2 4 4 5 2 3 3 4
0 0 0 0 0 0 0 0 0 0 0 0 0 0 -0 -1 -0 -0 -0 0 -0 -0 -0 1 2 3 5 5 6 5 5 5
0 0 0 0 0 0 0 1 0 0 0 0 0 0 0 0 1 0 0 1 1 1 0 1 2 4 5 7 7 8 6 5
0 0 0 0 0 0 0 0 0 0 0 0 0 0 0 0 0 1 1 0 0 1 1 1 2 3 5 7 9 7 6 4
0 0 0 -0 0 0 0 0 0 0 0 0 0 0 0 0 0 0 0 0 0 0 1 1 1 2 3 4 5 5 4 3
0 0 0 0 0 0 0 0 0 0 0 0 0 0 0 0 0 0 0 1 -0 -1 0 1 1 1 2 2 3 3 4 3
0 0 0 0 0 0 0 0 0 0 0 0 0 0 0 0 0 0 0 0 1 -0 -0 -0 0 -0 0 1 2 2 3 3
0 0 0 0 0 0 0 0 0 0 0 0 0 0 0 0 0 0 0 0 1 0 -1 -1 -1 -0 -1 1 1 2 3 2
0 0 0 0 0 0 0 0 0 0 0 0 0 0 0 0 0 0 0 0 0 0 0 0 0 0 -0 0 1 2 2 1
Wind_Speed_500mb
26 10 22 13 6 15 5 11 8 9 12 10 10 14 34 40 51 74 70 66 92 102 98 91 93 90 82 66 55 56 59 55
21 19 14 5 8 12 8 7 13 15 15 6 12 12 9 21 15 36 76 77 85 99 98 96 92 88 85 68 57 50 57 52
16 10 13 10 4 7 8 10 7 5 15 3 11 26 14 38 64 21 51 89 85 84 97 95 96 90 88 77 67 57 56 55
22 12 24 12 19 4 10 18 9 9 16 13 17 10 36 64 45 29 22 81 86 91 88 89 97 92 93 87 76 66 54 59
24 17 29 14 18 16 10 7 7 5 13 16 20 30 47 24 55 20 23 23 76 95 91 91 100 96 96 93 83 71 67 63
11 19 13 18 26 20 11 7 12 9 18 20 16 12 23 35 35 37 33 27 21 70 85 92 98 99 97 96 87 79 73 69
18 18 19 22 27 25 17 15 7 20 21 26 16 9 26 34 38 30 22 20 20 25 47 84 96 98 96 95 92 84 74 69
12 17 21 24 20 18 18 15 16 18 30 14 34 83 80 78 29 29 18 7 13 22 19 48 91 103 99 96 94 88 79 72
11 17 19 15 17 19 18 15 11 12 4 12 34 36 44 56 62 89 95 54 36 35 35 28 66 94 97 98 91 87 81 75
11 10 13 19 18 19 20 13 14 16 8 16 25 40 44 40 55 87 109 95 66 47 40 38 22 81 90 90 86 80 77 78
8 10 15 17 17 20 8 11 14 14 11 9 15 18 27 32 29 21 61 104 69 58 49 42 17 57 83 84 80 77 81 86
4 8 13 15 28 38 13 1 13 31 18 18 29 11 6 10 10 13 13 36 47 37 46 42 16 30 88 85 86 85 85 90
8 9 10 11 22 34 5 10 22 35 25 20 6 9 11 20 8 12 23 34 49 38 36 33 14 38 72 77 83 84 82 86
4 5 10 35 19 11 13 27 41 14 12 11 10 15 20 18 24 36 35 42 44 52 46 30 18 15 44 63 70 66 77 81
5 7 20 44 38 28 20 17 29 37 8 9 5 18 22 25 27 36 38 32 40 41 43 47 28 10 23 38 50 64 63 69
10 13 23 46 25 35 40 25 21 28 30 23 13 13 17 22 23 27 43 41 44 41 36 35 44 28 16 20 40 50 57 63
14 16 30 31 45 40 38 35 27 24 26 30 30 24 23 26 22 21 36 46 41 45 42 35 29 32 26 23 27 40 53 61
20 31 14 20 43 47 50 48 34 31 33 32 36 34 31 32 29 30 39 44 43 38 39 40 37 30 32 23 29 35 46 61
15 46 47 50 49 48 51 52 46 41 34 32 36 37 38 45 48 41 43 46 48 46 41 35 41 41 35 31 28 42 50 58
Wind_Direction_500mb
325 291 168 252 281 237 300 290 7 283 347 8 84 168 205 181 186 216 217 223 191 188 192 193 198 201 204 208 210 216 218 216
307 351 351 118 234 358 352 2 325 307 298 207 225 210 358 40 257 244 217 213 185 188 191 195 199 202 203 209 209 216 219 221
342 325 318 318 270 239 166 149 198 296 286 162 194 188 172 84 38 342 190 185 185 185 193 196 197 199 202 206 209 210 217 220
296 347 19 31 11 36 112 291 230 168 273 315 4 28 148 148 174 166 87 184 189 189 193 193 196 198 201 203 210 215 215 219
335 341 2 7 334 324 340 46 285 111 270 44 31 52 48 172 180 165 130 114 190 189 193 196 197 199 202 205 211 214 213 218
248 269 299 333 330 331 342 10 306 285 324 343 6 74 83 87 75 58 54 57 70 190 194 198 197 199 204 205 210 214 213 216
283 315 329 319 310 310 311 289 313 300 322 306 341 159 137 113 104 88 59 15 21 17 198 203 198 199 206 205 207 210 212 217
327 321 314 311 308 297 290 291 297 297 292 13 40 53 44 19 71 107 97 60 293 306 311 221 207 202 204 207 207 207 211 216
294 312 314 324 292 306 295 311 325 298 311 316 47 44 35 40 29 17 354 1 6 343 331 337 218 206 204 208 208 210 213 214
251 293 285 253 276 293 293 317 41 75 54 57 85 69 37 31 37 21 351 314 345 358 7 351 271 209 206 206 208 211 212 213
202 232 265 299 281 336 333 1 87 94 106 93 140 48 30 5 311 329 331 315 338 331 348 345 301 227 207 201 206 209 210 210
251 228 254 261 291 295 285 245 98 81 59 29 43 50 254 97 57 183 208 311 336 326 331 347 324 233 208 202 201 204 208 211
255 264 295 321 359 338 47 329 11 92 87 43 72 109 60 40 85 2 355 350 0 341 333 344 356 217 208 203 203 208 211 211
306 330 295 12 22 80 215 340 346 337 123 93 358 18 33 351 4 1 343 339 349 360 350 325 341 218 210 205 206 215 214 213
323 264 342 14 3 1 10 35 23 2 25 101 54 5 14 3 347 347 346 319 334 343 357 351 324 307 215 221 221 220 224 232
10 328 334 327 9 13 21 26 17 360 360 2 334 339 349 333 338 318 330 334 314 327 332 353 354 335 270 231 229 237 235 231
289 305 327 319 326 339 329 325 337 329 329 330 340 329 310 321 307 308 318 316 320 305 314 324 336 341 325 272 251 236 231 230
273 284 311 328 324 323 325 329 300 291 295 302 319 321 316 306 297 295 296 305 305 299 299 305 318 316 331 275 256 246 236 223
283 306 308 306 304 304 299 302 307 313 312 304 297 305 312 313 289 287 287 286 289 287 297 287 296 301 308 306 244 234 232 231
Wind_Speed_850mb
26 10 22 13 6 15 5 11 8 9 12 10 10 14 34 40 51 74 70 66 92 102 98 91 93 90 82 66 55 56 59 55
21 19 14 5 8 12 8 7 13 15 15 6 12 12 9 21 15 36 76 77 85 99 98 96 92 88 85 68 57 50 57 52
16 10 13 10 4 7 8 10 7 5 15 3 11 26 14 38 64 21 51 89 85 84 97 95 96 90 88 77 67 57 56 55
22 12 24 12 19 4 10 18 9 9 16 13 17 10 36 64 45 29 22 81 86 91 88 89 97 92 93 87 76 66 54 59
24 17 29 14 18 16 10 7 7 5 13 16 20 30 47 24 55 20 23 23 76 95 91 91 100 96 96 93 83 71 67 63
11 19 13 18 26 20 11 7 12 9 18 20 16 12 23 35 35 37 33 27 21 70 85 92 98 99 97 96 87 79 73 69
18 18 19 22 27 25 17 15 7 20 21 26 16 9 26 34 38 30 22 20 20 25 47 84 96 98 96 95 92 84 74 69
12 17 21 24 20 18 18 15 16 18 30 14 34 83 80 78 29 29 18 7 13 22 19 48 91 103 99 96 94 88 79 72
11 17 19 15 17 19 18 15 11 12 4 12 34 36 44 56 62 89 95 54 36 35 35 28 66 94 97 98 91 87 81 75
11 10 13 19 18 19 20 13 14 16 8 16 25 40 44 40 55 87 109 95 66 47 40 38 22 81 90 90 86 80 77 78
8 10 15 17 17 20 8 11 14 14 11 9 15 18 27 32 29 21 61 104 69 58 49 42 17 57 83 84 80 77 81 86
4 8 13 15 28 38 13 1 13 31 18 18 29 11 6 10 10 13 13 36 47 37 46 42 16 30 88 85 86 85 85 90
8 9 10 11 22 34 5 10 22 35 25 20 6 9 11 20 8 12 23 34 49 38 36 33 14 38 72 77 83 84 82 86
4 5 10 35 19 11 13 27 41 14 12 11 10 15 20 18 24 36 35 42 44 52 46 30 18 15 44 63 70 66 77 81
5 7 20 44 38 28 20 17 29 37 8 9 5 18 22 25 27 36 38 32 40 41 43 47 28 10 23 38 50 64 63 69
10 13 23 46 25 35 40 25 21 28 30 23 13 13 17 22 23 27 43 41 44 41 36 35 44 28 16 20 40 50 57 63
14 16 30 31 45 40 38 35 27 24 26 30 30 24 23 26 22 21 36 46 41 45 42 35 29 32 26 23 27 40 53 61
20 31 14 20 43 47 50 48 34 31 33 32 36 34 31 32 29 30 39 44 43 38 39 40 37 30 32 23 29 35 46 61
15 46 47 50 49 48 51 52 46 41 34 32 36 37 38 45 48 41 43 46 48 46 41 35 41 41 35 31 28 42 50 58
Wind_Direction_850mb
325 291 168 252 281 237 300 290 7 283 347 8 84 168 205 181 186 216 217 223 191 188 192 193 198 201 204 208 210 216 218 216
307 351 351 118 234 358 352 2 325 307 298 207 225 210 358 40 257 244 217 213 185 188 191 195 199 202 203 209 209 216 219 221
342 325 318 318 270 239 166 149 198 296 286 162 194 188 172 84 38 342 190 185 185 185 193 196 197 199 202 206 209 210 217 220
296 347 19 31 11 36 112 291 230 168 273 315 4 28 148 148 174 166 87 184 189 189 193 193 196 198 201 203 210 215 215 219
335 341 2 7 334 324 340 46 285 111 270 44 31 52 48 172 180 165 130 114 190 189 193 196 197 199 202 205 211 214 213 218
248 269 299 333 330 331 342 10 306 285 324 343 6 74 83 87 75 58 54 57 70 190 194 198 197 199 204 205 210 214 213 216
283 315 329 319 310 310 311 289 313 300 322 306 341 159 137 113 104 88 59 15 21 17 198 203 198 199 206 205 207 210 212 217
327 321 314 311 308 297 290 291 297 297 292 13 40 53 44 19 71 107 97 60 293 306 311 221 207 202 204 207 207 207 211 216
294 312 314 324 292 306 295 311 325 298 311 316 47 44 35 40 29 17 354 1 6 343 331 337 218 206 204 208 208 210 213 214
251 293 285 253 276 293 293 317 41 75 54 57 85 69 37 31 37 21 351 314 345 358 7 351 271 209 206 206 208 211 212 213
202 232 265 299 281 336 333 1 87 94 106 93 140 48 30 5 311 329 331 315 338 331 348 345 301 227 207 201 206 209 210 210
251 228 254 261 291 295 285 245 98 81 59 29 43 50 254 97 57 183 208 311 336 326 331 347 324 233 208 202 201 204 208 211
255 264 295 321 359 338 47 329 11 92 87 43 72 109 60 40 85 2 355 350 0 341 333 344 356 217 208 203 203 208 211 211
306 330 295 12 22 80 215 340 346 337 123 93 358 18 33 351 4 1 343 339 349 360 350 325 341 218 210 205 206 215 214 213
323 264 342 14 3 1 10 35 23 2 25 101 54 5 14 3 347 347 346 319 334 343 357 351 324 307 215 221 221 220 224 232
10 328 334 327 9 13 21 26 17 360 360 2 334 339 349 333 338 318 330 334 314 327 332 353 354 335 270 231 229 237 235 231
289 305 327 319 326 339 329 325 337 329 329 330 340 329 310 321 307 308 318 316 320 305 314 324 336 341 325 272 251 236 231 230
273 284 311 328 324 323 325 329 300 291 295 302 319 321 316 306 297 295 296 305 305 299 299 305 318 316 331 275 256 246 236 223
283 306 308 306 304 304 299 302 307 313 312 304 297 305 312 313 289 287 287 286 289 287 297 287 296 301 308 306 244 234 232 231